STARLINK-31782 (59606 NORAD) Tracking and Keplerian Element Data

This shows tracking and keplerian element data for the satellite.

Feedback or suggestion? Click here.




ElementValue
Catalog59606
NameSTARLINK-31782
Epoch Orbit751
Epoch Day160.20947364
Epoch Year2024
RAAN87.3307
Inclination43.0005
Eccentricity0.0001608
Argument of Perigee266.0509
Mean Anonmoly94.0163
Mean Motion15.40747975
Decay Rate0.00044456
L11 59606U 24080F 24160.20947364 .00044456 00000+0 10636-2 0 9998
L22 59606 43.0005 87.3307 0001608 266.0509 94.0163 15.40747975 7516



Live tracking and technical data element details for STARLINK-31782 (NORAD 59606). STARLINK-31782 can be tracked NOW for your location showing map with azimuth and elevation plus other details from your city location.







IsCatalogInMostPopularTable: catalog: 59606, numindb: 11
Update: records affected: 1



GetName: 59606 STARLINK-31782

Hit Count: updated at: Fri, 14 Jun 2024 19:10:15 GMT